Wind_Speed
47 51 50 51 49 44 45 41 42 42 42 37 35 37 35 31 32 30 30 30 30 28 28 30 34 35 38 40 41 43 45 47 45 44 44 44 46 50 53 54 58 64 68 72 77 81 81
44 48 50 50 51 49 49 48 44 46 42 44 40 40 36 38 36 36 35 35 35 35 33 32 32 33 35 36 35 35 36 39 40 41 44 47 50 54 54 56 61 64 68 74 76 80 79
45 47 49 50 50 53 53 53 52 52 52 47 46 43 44 43 42 41 40 42 41 41 40 39 39 37 36 34 34 36 37 40 44 47 49 51 53 54 58 62 65 68 72 78 80 80 78
43 46 50 50 50 51 52 55 56 53 52 52 49 49 49 48 47 47 45 45 45 46 47 46 45 45 44 42 42 43 44 45 48 52 53 55 57 59 62 65 66 72 75 79 80 80 77
36 39 48 45 51 53 52 53 54 54 56 57 58 58 56 55 54 53 53 52 52 52 50 51 52 51 51 51 50 50 51 53 56 58 59 61 62 64 66 69 72 77 78 79 78 79 77
28 30 36 44 49 51 53 55 55 55 54 57 60 58 58 60 59 59 59 57 57 55 55 54 53 55 56 56 57 58 59 58 60 63 64 66 67 70 72 74 76 81 80 78 78 80 79
34 32 30 30 33 41 47 54 51 54 57 57 60 59 62 62 63 63 64 62 63 63 61 62 60 59 58 57 55 57 61 64 66 66 67 70 70 74 77 78 81 85 79 75 80 84 80
40 38 35 31 29 26 31 40 46 54 54 59 62 63 65 64 65 66 67 69 68 67 68 67 66 66 64 65 66 64 65 64 65 66 68 71 75 77 80 83 83 79 76 75 80 84 83
47 45 43 41 40 37 35 33 34 37 46 49 55 62 63 67 69 69 69 68 68 68 68 70 70 70 71 69 70 69 69 70 69 69 69 71 76 79 82 85 78 78 75 76 81 84 83
48 52 47 43 41 42 39 38 40 41 42 39 43 53 57 59 62 65 68 70 71 69 65 69 72 74 74 75 73 74 73 73 72 72 72 72 76 80 82 79 72 76 73 80 85 84 78
51 56 53 50 49 46 44 42 43 45 46 44 46 46 46 54 59 63 61 63 67 71 68 71 72 70 70 72 72 73 67 63 64 68 71 75 76 75 74 73 71 73 73 82 85 85 76
60 59 50 50 53 55 51 49 47 50 52 51 49 53 50 49 54 59 58 59 61 65 66 70 72 72 73 72 69 64 65 61 59 61 65 69 73 72 69 67 70 70 73 82 87 87 72
61 61 59 55 57 60 58 54 55 56 56 57 59 56 54 54 54 56 57 59 59 56 58 64 67 69 72 73 70 66 64 61 55 53 54 61 70 65 60 61 69 73 79 82 88 82 67
59 61 59 58 60 62 61 61 61 60 63 65 62 56 56 56 57 57 58 57 57 54 55 57 58 61 62 68 69 67 62 59 57 52 50 54 63 58 56 61 62 71 80 86 88 72 62
59 64 61 63 63 64 67 66 65 69 69 66 67 63 60 59 58 60 61 59 56 57 57 58 57 57 55 59 64 66 61 54 52 51 48 50 57 57 56 62 62 68 79 87 87 68 58
61 66 67 65 67 70 69 71 71 73 71 71 69 68 68 65 61 61 62 62 61 62 60 59 56 54 53 52 55 56 59 58 54 49 46 47 48 57 57 60 62 71 80 85 82 60 51
64 66 66 70 72 70 71 74 75 77 76 76 76 74 69 70 72 66 57 57 66 69 67 62 55 52 49 49 49 52 53 46 49 44 43 44 46 52 53 56 61 70 81 85 72 56 38
64 67 69 73 76 75 78 78 81 84 82 83 84 81 78 77 78 70 65 63 61 66 70 67 59 55 50 49 46 47 47 41 35 38 39 42 41 45 51 57 62 69 79 85 62 46 33
69 73 76 79 80 79 79 81 83 86 88 87 86 84 81 83 80 74 73 67 63 64 66 70 64 57 51 50 47 41 42 36 32 32 34 38 37 37 49 53 59 67 75 81 57 40 30
72 74 78 78 79 84 89 91 92 92 92 95 97 91 88 85 81 78 72 67 63 63 65 68 66 59 57 52 45 37 37 33 29 27 31 34 39 40 44 50 57 69 74 75 48 34 28
75 81 82 85 90 92 93 95 98 97 100 98 95 92 91 88 77 76 72 68 63 64 65 69 65 62 64 50 41 38 33 31 27 25 29 33 36 38 43 48 57 65 72 66 40 28 23
77 82 87 91 93 95 98 97 101 104 103 99 99 97 96 85 78 77 75 67 68 66 67 69 69 70 63 49 46 35 32 29 28 25 28 30 31 37 40 45 54 62 69 56 32 24 18
85 85 89 93 95 99 101 104 104 105 102 97 98 95 95 88 86 81 72 69 69 71 66 69 72 70 60 55 44 34 31 29 25 23 26 28 28 34 37 43 51 58 65 50 29 20 14
85 89 94 96 96 98 99 102 104 102 97 93 91 92 92 86 88 84 77 73 72 71 72 75 75 68 61 56 41 32 32 29 25 23 24 25 26 30 32 38 48 55 60 45 27 18 12
90 92 96 98 100 101 97 95 94 94 92 87 85 89 91 86 86 79 79 74 76 77 76 75 73 70 64 54 42 34 32 29 25 24 23 22 23 26 28 34 42 50 56 45 28 22 11
93 94 94 96 95 94 92 90 89 89 86 83 84 87 88 82 74 79 74 71 70 76 81 75 71 69 64 54 42 35 35 32 27 25 22 20 20 22 23 30 38 47 51 46 29 20 9
93 94 92 93 91 90 88 86 87 88 85 81 80 79 76 69 66 65 62 64 66 70 78 81 73 69 63 53 45 39 38 36 30 27 22 20 18 17 19 25 33 41 45 46 29 19 10
90 89 89 88 86 86 86 85 85 82 80 71 70 66 62 55 52 51 54 58 63 67 74 77 74 68 59 53 43 42 43 39 33 28 23 20 17 14 14 20 27 35 39 46 32 20 10
90 87 84 84 85 85 83 80 77 73 66 60 58 56 49 43 47 47 49 55 59 63 67 66 67 68 64 59 49 48 44 43 36 31 25 21 17 12 10 14 21 29 32 41 36 22 10
Wind_Direction
256 255 256 259 257 256 257 249 251 252 253 254 258 255 250 252 258 261 261 267 268 268 270 263 260 262 263 264 268 270 271 273 271 269 270 272 273 274 275 278 279 280 281 282 280 279 278
258 256 255 257 256 257 256 254 255 260 257 256 256 258 259 255 257 257 263 265 266 266 270 269 266 266 265 265 265 265 269 269 267 271 274 273 272 276 282 284 285 285 288 290 289 284 282
257 257 257 256 255 257 259 260 262 263 263 263 262 259 263 258 255 258 259 260 263 265 264 266 267 267 267 263 261 265 270 274 273 273 276 279 281 284 287 289 292 293 294 295 293 288 287
253 254 253 255 256 258 257 256 258 260 263 262 258 260 259 256 258 258 259 261 264 263 264 265 267 269 268 267 266 266 269 273 276 278 280 283 284 287 288 291 294 298 299 297 294 292 292
276 269 254 251 252 254 256 258 260 260 260 259 262 264 259 260 256 258 261 262 263 265 266 264 265 267 267 267 267 269 270 272 276 278 281 284 285 287 290 292 298 301 302 298 295 295 299
271 276 273 266 260 254 254 253 256 259 260 261 263 261 262 260 260 261 263 262 262 261 264 264 266 267 268 270 270 271 271 274 277 279 281 284 287 288 291 294 299 302 301 298 298 299 305
279 269 266 264 271 268 262 256 253 254 256 257 258 261 261 261 260 261 263 263 263 265 262 265 265 264 265 268 271 275 275 276 277 280 283 285 287 289 292 296 300 303 299 300 304 306 309
280 279 274 262 265 268 272 267 263 259 257 254 256 258 260 261 263 263 263 263 264 265 266 264 263 264 266 269 271 272 275 278 278 279 282 286 288 291 294 298 301 301 300 303 308 311 311
276 278 277 275 273 272 273 268 272 272 264 263 262 260 257 260 262 264 265 266 267 265 264 267 267 267 269 269 270 272 275 278 280 282 284 287 289 292 295 299 304 303 304 309 311 316 314
277 274 275 271 271 271 273 275 277 278 273 274 272 265 262 259 261 262 265 266 268 265 266 266 267 267 268 269 271 274 276 276 280 284 286 289 291 294 298 301 303 303 308 313 316 320 316
275 275 270 274 274 274 278 276 279 280 284 286 284 275 272 264 264 262 263 262 264 267 268 267 268 269 271 272 272 272 273 278 281 282 285 289 291 293 298 303 304 305 313 317 321 324 318
271 271 265 271 275 274 278 275 276 279 282 284 288 282 275 274 268 266 265 263 262 265 267 268 268 269 271 272 273 272 273 274 278 285 288 290 291 295 300 304 306 310 317 319 326 325 318
270 263 263 270 275 272 273 273 276 277 282 285 289 285 279 279 277 273 268 265 264 269 270 268 269 269 271 273 273 272 273 273 274 279 289 295 295 298 303 309 310 315 320 322 328 325 320
266 262 263 268 275 270 272 274 278 278 283 286 288 285 279 278 279 276 274 270 269 269 272 274 273 271 269 271 274 275 275 275 276 278 285 292 295 300 306 310 310 318 322 326 330 327 325
259 265 269 272 272 269 274 276 276 280 281 284 287 287 279 278 279 279 276 275 276 274 276 275 272 272 274 273 273 274 277 274 276 278 284 291 297 302 309 310 316 323 324 328 330 328 326
257 261 266 269 266 271 274 274 276 278 280 283 284 284 282 279 278 278 277 277 271 274 275 275 277 275 272 276 276 277 277 274 277 278 281 290 296 304 311 312 319 325 326 331 330 331 325
254 257 263 265 267 270 272 274 276 279 281 282 283 284 282 280 280 280 278 276 268 268 272 274 275 277 274 274 278 276 278 279 270 273 280 288 298 304 309 314 322 327 329 333 332 331 329
252 257 262 263 267 269 272 272 275 279 279 281 282 281 280 280 279 282 283 277 270 265 268 270 272 273 275 275 274 277 278 276 264 266 279 290 299 307 313 318 324 329 331 335 333 331 327
252 257 261 266 269 270 269 273 275 277 278 279 282 281 280 278 279 280 278 271 268 262 264 267 269 272 274 272 270 273 274 269 262 267 279 292 299 308 313 317 323 330 334 338 336 329 328
256 259 261 264 267 269 271 274 276 276 277 278 279 279 278 276 275 274 272 266 263 259 258 262 265 268 270 269 266 265 267 261 259 263 280 293 302 312 314 322 329 334 338 340 337 333 337
258 258 261 262 265 267 270 271 274 275 277 278 277 278 278 274 270 268 263 260 256 257 256 257 259 265 266 262 263 260 260 255 250 258 276 291 300 312 317 325 332 337 339 340 336 333 345
266 267 267 268 267 270 272 272 274 274 277 277 278 277 275 271 266 262 258 256 253 249 252 253 257 260 257 260 258 254 252 244 245 255 274 288 302 311 318 327 334 338 341 341 336 337 354
267 268 268 268 269 270 271 272 275 276 276 275 274 276 273 268 267 261 256 251 249 245 244 248 249 251 252 254 246 246 242 237 239 252 272 286 302 309 319 328 336 341 343 344 336 340 2
270 271 273 273 276 277 277 277 276 276 274 273 270 269 267 266 263 263 256 246 244 243 239 238 243 244 246 246 239 236 230 228 228 243 263 279 296 307 319 332 338 342 346 347 344 343 9
273 275 276 277 277 278 278 277 277 274 270 269 268 267 266 264 264 263 261 254 243 239 236 235 235 238 237 236 229 223 222 219 218 236 255 273 290 303 320 333 340 345 348 352 350 345 14
277 279 280 281 280 278 278 276 276 273 271 270 268 267 267 264 263 257 253 248 240 234 230 231 234 233 230 226 220 212 216 210 212 230 246 263 281 299 320 334 344 347 351 355 356 347 20
281 282 282 281 279 278 277 275 273 273 273 271 269 266 264 261 256 251 247 239 232 225 225 226 228 228 225 219 211 205 211 205 207 222 234 251 271 294 319 337 348 350 353 359 358 348 12
285 283 281 278 277 275 275 274 273 273 270 269 266 263 259 255 250 245 238 232 227 223 223 223 220 221 218 212 201 207 205 198 204 214 225 241 259 282 315 340 350 354 356 4 5 1 19
284 280 278 277 275 275 274 273 270 268 266 263 261 258 255 251 244 234 228 226 220 216 215 217 215 214 211 205 198 202 199 195 201 207 216 229 245 264 306 340 353 357 2 8 10 14 27
Height
10680 10683 10686 10688 10689 10691 10694 10695 10696 10697 10699 10700 10701 10702 10703 10704 10705 10705 10706 10705 10705 10706 10706 10705 10705 10705 10705 10705 10707 10707 10706 10706 10705 10703 10702 10701 10700 10698 10695 10693 10690 10685 10678 10670 10665 10660 10661
10669 10671 10673 10676 10678 10681 10683 10685 10686 10688 10689 10691 10692 10693 10694 10695 10696 10697 10697 10697 10697 10698 10698 10698 10697 10697 10696 10696 10697 10697 10696 10695 10695 10693 10691 10690 10688 10686 10683 10678 10672 10669 10660 10650 10643 10637 10640
10658 10660 10661 10663 10666 10668 10670 10673 10675 10677 10679 10680 10682 10683 10684 10685 10686 10688 10688 10688 10688 10688 10688 10688 10688 10688 10688 10688 10687 10687 10686 10685 10683 10682 10679 10677 10676 10674 10669 10663 10657 10650 10644 10631 10620 10614 10616
10650 10649 10650 10651 10653 10655 10658 10660 10663 10665 10667 10668 10670 10672 10674 10675 10676 10678 10678 10679 10678 10678 10678 10679 10678 10679 10678 10678 10679 10678 10676 10674 10672 10669 10666 10665 10663 10660 10654 10648 10643 10633 10627 10615 10601 10591 10589
10639 10640 10641 10641 10642 10643 10644 10647 10650 10652 10654 10656 10658 10659 10661 10663 10665 10666 10667 10667 10668 10667 10668 10668 10667 10667 10667 10668 10667 10666 10665 10663 10660 10657 10654 10651 10649 10644 10639 10633 10626 10617 10608 10595 10582 10572 10567
10632 10631 10630 10630 10631 10632 10634 10634 10637 10639 10641 10643 10644 10646 10648 10650 10652 10654 10654 10656 10656 10656 10656 10656 10654 10657 10654 10654 10654 10653 10652 10650 10647 10643 10640 10637 10635 10628 10622 10616 10609 10599 10591 10578 10562 10550 10545
10626 10624 10622 10621 10621 10620 10621 10624 10624 10626 10627 10629 10630 10632 10634 10636 10638 10639 10641 10642 10644 10644 10644 10643 10642 10641 10642 10642 10641 10638 10638 10636 10634 10630 10626 10621 10618 10613 10606 10599 10591 10579 10571 10559 10541 10525 10520
10616 10615 10614 10613 10612 10612 10612 10611 10612 10613 10615 10616 10617 10618 10619 10621 10623 10625 10626 10628 10629 10631 10629 10628 10628 10628 10628 10629 10627 10626 10624 10623 10619 10615 10611 10607 10601 10598 10590 10582 10575 10559 10554 10538 10529 10508 10489
10604 10603 10603 10602 10602 10602 10602 10602 10602 10602 10603 10602 10603 10604 10605 10606 10608 10610 10610 10613 10614 10616 10617 10614 10614 10614 10613 10614 10612 10611 10611 10609 10605 10599 10597 10592 10586 10582 10575 10565 10560 10541 10533 10522 10507 10490 10463
10590 10590 10590 10591 10590 10590 10589 10589 10590 10590 10590 10590 10590 10590 10590 10591 10592 10593 10596 10597 10598 10600 10605 10601 10599 10598 10598 10598 10598 10596 10596 10596 10593 10586 10582 10578 10571 10567 10559 10551 10542 10530 10518 10502 10485 10465 10446
10579 10577 10576 10576 10577 10577 10577 10577 10577 10577 10575 10576 10575 10575 10576 10577 10577 10579 10580 10582 10582 10582 10590 10586 10584 10584 10583 10583 10584 10582 10583 10584 10581 10574 10569 10561 10559 10557 10547 10538 10528 10514 10504 10486 10468 10445 10427
10563 10563 10562 10561 10561 10562 10561 10562 10563 10563 10563 10562 10562 10560 10561 10562 10562 10564 10564 10566 10567 10569 10574 10570 10569 10570 10569 10568 10568 10570 10569 10571 10570 10563 10556 10547 10544 10545 10537 10523 10511 10501 10491 10471 10451 10427 10410
10546 10546 10547 10547 10547 10547 10547 10547 10548 10548 10548 10547 10549 10547 10545 10546 10547 10548 10550 10552 10553 10557 10555 10558 10554 10555 10554 10553 10553 10554 10555 10556 10557 10557 10549 10538 10526 10531 10524 10515 10498 10482 10469 10457 10441 10417 10396
10527 10528 10530 10530 10530 10530 10531 10531 10531 10532 10532 10531 10532 10532 10531 10532 10532 10533 10534 10537 10542 10546 10541 10540 10540 10542 10540 10538 10539 10539 10542 10543 10542 10544 10541 10534 10517 10518 10512 10503 10494 10475 10456 10436 10422 10402 10385
10509 10512 10512 10514 10514 10515 10515 10516 10515 10515 10515 10516 10513 10516 10516 10516 10518 10518 10519 10524 10530 10529 10528 10525 10527 10529 10528 10524 10525 10526 10527 10530 10530 10530 10527 10525 10509 10506 10502 10490 10481 10469 10448 10428 10409 10389 10376
10490 10493 10495 10496 10497 10497 10498 10497 10497 10496 10497 10497 10496 10498 10500 10500 10501 10502 10505 10514 10514 10512 10511 10512 10514 10516 10516 10513 10514 10513 10514 10518 10517 10518 10518 10515 10511 10496 10491 10481 10471 10455 10438 10419 10395 10384 10368
10471 10475 10477 10477 10477 10478 10478 10477 10477 10476 10477 10476 10476 10479 10485 10480 10480 10485 10494 10499 10498 10498 10497 10498 10501 10502 10504 10503 10502 10503 10503 10506 10505 10508 10507 10506 10501 10490 10484 10475 10462 10449 10428 10409 10388 10374 10363
10453 10455 10457 10457 10457 10458 10459 10459 10457 10456 10456 10456 10455 10458 10466 10461 10459 10471 10481 10482 10483 10483 10482 10482 10488 10490 10492 10491 10493 10492 10491 10494 10495 10498 10497 10495 10495 10486 10477 10466 10453 10441 10423 10402 10382 10370 10354
10435 10436 10436 10437 10437 10438 10438 10437 10436 10435 10433 10432 10433 10436 10442 10442 10445 10455 10460 10461 10463 10466 10467 10468 10473 10478 10480 10479 10481 10484 10482 10485 10486 10489 10490 10487 10486 10483 10472 10463 10450 10435 10416 10395 10376 10362 10350
10416 10416 10417 10417 10416 10416 10416 10415 10413 10413 10410 10411 10413 10414 10416 10419 10427 10431 10435 10440 10445 10447 10450 10452 10457 10463 10466 10466 10470 10475 10474 10476 10477 10481 10482 10480 10475 10472 10467 10456 10444 10424 10407 10388 10372 10360 10349
10397 10397 10398 10395 10395 10394 10393 10391 10389 10388 10384 10384 10388 10392 10387 10390 10403 10403 10406 10420 10425 10427 10431 10434 10442 10448 10449 10455 10461 10463 10465 10467 10470 10472 10475 10474 10471 10466 10461 10450 10436 10422 10404 10385 10371 10358 10349
10375 10374 10373 10373 10371 10370 10368 10365 10361 10361 10358 10357 10357 10361 10355 10359 10369 10376 10383 10400 10402 10408 10413 10421 10427 10430 10432 10445 10448 10454 10455 10458 10461 10465 10468 10468 10466 10460 10455 10446 10433 10419 10402 10384 10371 10359 10352
10350 10350 10348 10347 10345 10342 10340 10338 10334 10329 10328 10330 10328 10327 10320 10337 10338 10345 10363 10373 10381 10383 10396 10401 10406 10410 10421 10430 10436 10443 10446 10450 10454 10458 10461 10461 10460 10457 10451 10441 10430 10416 10401 10382 10371 10360 10354
10325 10323 10320 10318 10314 10311 10309 10307 10302 10297 10296 10299 10301 10296 10293 10307 10303 10316 10327 10343 10353 10361 10367 10373 10383 10395 10410 10414 10426 10432 10437 10442 10446 10451 10455 10456 10455 10452 10448 10439 10427 10414 10400 10383 10371 10361 10355
10297 10295 10292 10289 10284 10280 10277 10274 10268 10264 10264 10271 10273 10265 10263 10273 10278 10291 10301 10312 10325 10335 10343 10357 10366 10379 10389 10402 10413 10420 10427 10433 10438 10444 10448 10450 10450 10448 10442 10436 10426 10414 10398 10383 10372 10362 10357
10268 10266 10262 10257 10253 10249 10244 10241 10237 10231 10232 10241 10243 10237 10236 10242 10262 10257 10266 10278 10296 10310 10318 10335 10349 10359 10374 10387 10401 10410 10417 10425 10431 10437 10442 10444 10445 10443 10440 10434 10424 10413 10400 10384 10373 10364 10360
10237 10235 10230 10225 10221 10216 10212 10210 10206 10204 10206 10212 10213 10210 10208 10218 10228 10232 10243 10252 10265 10282 10296 10308 10327 10344 10358 10376 10388 10397 10407 10415 10422 10430 10435 10438 10439 10439 10436 10432 10424 10413 10401 10388 10375 10367 10361
10203 10202 10198 10194 10190 10185 10182 10181 10179 10178 10178 10187 10185 10186 10189 10200 10205 10214 10222 10231 10244 10260 10277 10291 10306 10328 10348 10364 10378 10387 10396 10406 10414 10422 10427 10432 10434 10434 10433 10429 10422 10414 10404 10391 10378 10369 10363
10170 10169 10166 10162 10158 10155 10154 10154 10152 10152 10157 10164 10164 10166 10173 10182 10189 10195 10204 10214 10229 10242 10257 10277 10301 10315 10331 10344 10363 10376 10387 10395 10405 10413 10420 10425 10428 10429 10428 10426 10421 10414 10406 10394 10381 10372 10366